TimePST,TemperatureF,Dew PointF,Humidity,Sea Level PressureIn,VisibilityMPH,Wind Direction,Wind SpeedMPH,Gust SpeedMPH,PrecipitationIn,Events,Conditions,WindDirDegrees,DateUTC
12:00 AM,45.7,41.4,85,29.86,-9999.0,South,40.3,50.6,0.05,,Unknown,180,2013-01-02 08:00:00
1:00 AM,46,42,81,29.85,,South,41.4,,,,,180,2013-01-02 09:00:00
1:00 AM,45.7,42.1,87,29.85,-9999.0,South,41.4,50.6,0.03,,Unknown,180,2013-01-02 09:00:00
2:00 AM,45.7,42.1,87,29.84,-9999.0,South,39.1,49.5,N/A,,Unknown,180,2013-01-02 10:00:00
3:00 AM,45.5,42.3,88,29.83,-9999.0,South,40.3,48.3,0.01,,Unknown,180,2013-01-02 11:00:00
4:00 AM,46,43,84,29.81,,South,39.1,,,,,180,2013-01-02 12:00:00
4:00 AM,46.2,42.6,87,29.81,-9999.0,South,39.1,51.8,N/A,,Unknown,180,2013-01-02 12:00:00
5:00 AM,46.4,42.6,87,29.81,-9999.0,South,42.6,51.8,0.02,,Unknown,180,2013-01-02 13:00:00
6:00 AM,46.2,42.8,88,29.78,-9999.0,South,41.4,51.8,0.03,,Unknown,180,2013-01-02 14:00:00
7:00 AM,46,43,87,29.78,,South,35.7,,,,,180,2013-01-02 15:00:00
7:00 AM,46.2,43.3,90,29.78,-9999.0,South,35.7,48.3,0.04,,Unknown,180,2013-01-02 15:00:00
8:00 AM,45.7,43.5,92,29.77,-9999.0,South,36.8,48.3,0.04,,Unknown,180,2013-01-02 16:00:00
9:00 AM,45.7,43.7,93,29.78,-9999.0,South,33.4,41.4,0.05,,Unknown,180,2013-01-02 17:00:00
10:00 AM,46,44,89,29.78,,South,34.5,,,,,180,2013-01-02 18:00:00
10:00 AM,45.9,43.9,93,29.78,-9999.0,South,34.5,44.9,0.06,,Unknown,180,2013-01-02 18:00:00
11:00 AM,46.0,44.1,93,29.78,-9999.0,South,34.5,42.6,0.05,,Unknown,180,2013-01-02 19:00:00
12:00 PM,46.0,44.2,93,29.78,-9999.0,South,33.4,43.7,0.05,,Unknown,180,2013-01-02 20:00:00
1:00 PM,46,44,91,29.76,,South,29.9,,,,,180,2013-01-02 21:00:00
1:00 PM,45.9,44.2,94,29.76,-9999.0,South,29.9,40.3,0.07,,Unknown,190,2013-01-02 21:00:00
2:00 PM,42.1,39.9,92,29.80,-9999.0,NNW,23.0,-,0.16,,Unknown,340,2013-01-02 22:00:00
3:00 PM,42.3,39.6,90,29.80,-9999.0,North,13.8,-,0.03,,Unknown,10,2013-01-02 23:00:00
4:00 PM,43,40,85,29.82,,NNW,2.3,,,,,340,2013-01-03 00:00:00
4:00 PM,42.8,40.1,90,29.82,-9999.0,NNW,2.3,-,0.02,,Unknown,340,2013-01-03 00:00:00
5:00 PM,43.3,39.9,88,29.84,-9999.0,NNE,13.8,-,0.02,,Unknown,30,2013-01-03 01:00:00
6:00 PM,42.6,38.7,86,29.87,-9999.0,NE,6.9,-,N/A,,Unknown,50,2013-01-03 02:00:00
7:00 PM,43,38,78,29.89,,NNE,10.4,,,,,30,2013-01-03 03:00:00
7:00 PM,43.2,38.5,84,29.89,-9999.0,NNE,10.4,-,N/A,,Unknown,30,2013-01-03 03:00:00
8:00 PM,42.6,36.9,80,29.91,-9999.0,ENE,6.9,-,N/A,,Unknown,60,2013-01-03 04:00:00
9:00 PM,41.7,36.5,82,29.92,-9999.0,ENE,6.9,-,N/A,,Unknown,60,2013-01-03 05:00:00
10:00 PM,41,37,79,29.94,,NNE,3.5,,,,,20,2013-01-03 06:00:00
10:00 PM,41.4,36.7,83,29.94,-9999.0,NNE,3.5,-,N/A,,Unknown,20,2013-01-03 06:00:00
11:00 PM,41.5,36.7,83,29.94,-9999.0,East,2.3,-,N/A,,Unknown,100,2013-01-03 07:00:00